N8QVQ Weather Reports


Display with metric or nautical units.
time (UTC)temp
F
wind
direction
speed
MPH
gust
MPH
rain 1hr
in
rain 24hr
in
rain mn
in
humidity
%
barometer
mb
20220520082114 66 176 8.0 14.0 0.01 0.01 0.01 82 991.4
20220520081414 65 157 3.0 14.0 0.01 0.01 0.01 84 991.7
20220520080714 65 211 3.0 14.0 0.01 0.01 0.01 85 992.7
20220520080014 63 175 1.0 14.0 0.01 0.01 0.01 88 993.0
20220520075314 63 148 0.0 14.0 0.01 0.01 0.01 90 993.5
20220520074614 63 91 0.0 14.0 0.01 0.01 0.01 90 993.9
20220520073913 64 90 0.0 14.0 0.01 0.01 0.01 88 994.3
20220520073213 65 81 0.0 14.0 0.00 0.00 0.00 85 994.4
20220520072513 66 98 0.0 14.0 0.00 0.00 0.00 82 994.3
20220520071813 66 149 0.0 14.0 0.00 0.00 0.00 80 994.3
20220520071113 66 146 0.0 14.0 0.00 0.00 0.00 79 994.3
20220520070413 67 171 2.0 14.0 0.00 0.00 0.00 78 994.1
20220520065713 67 156 2.0 14.0 0.00 0.00 0.00 78 994.2
20220520065014 67 173 6.0 14.0 0.00 0.00 0.00 78 993.8
20220520064314 67 152 6.0 14.0 0.00 0.00 0.00 78 994.0
20220520063614 67 161 6.0 14.0 0.00 0.00 0.00 77 993.9
20220520062914 67 150 5.0 14.0 0.00 0.00 0.00 77 994.0
20220520062214 67 201 5.0 14.0 0.00 0.00 0.00 77 994.1
20220520061514 67 146 6.0 14.0 0.00 0.00 0.00 76 994.0
20220520060815 67 136 2.0 14.0 0.00 0.00 0.00 77 994.1
20220520060115 67 149 3.0 14.0 0.00 0.00 0.00 77 994.0
20220520055414 67 133 5.0 14.0 0.00 0.00 0.00 77 993.9
20220520054714 67 164 6.0 14.0 0.00 0.00 0.00 77 994.1
20220520054013 67 185 3.0 13.0 0.00 0.00 0.00 76 994.1
20220520053313 66 180 6.0 13.0 0.00 0.00 0.00 76 994.2
20220520052613 66 120 3.0 13.0 0.00 0.00 0.00 77 994.2
20220520051914 66 167 3.0 13.0 0.00 0.00 0.00 77 994.1
20220520051214 66 175 5.0 13.0 0.00 0.00 0.00 77 994.3
20220520050514 66 97 7.0 13.0 0.00 0.00 0.00 77 994.5
20220520045814 66 134 2.0 12.0 0.00 0.00 0.00 76 994.7
20220520045113 66 151 3.0 10.0 0.00 0.00 0.00 76 994.9
20220520044413 66 141 3.0 10.0 0.00 0.00 0.00 76 995.3
20220520043714 66 145 5.0 10.0 0.00 0.00 0.00 76 995.1
20220520043014 66 155 6.0 10.0 0.00 0.00 0.00 76 995.1
20220520042314 65 109 3.0 7.0 0.00 0.00 0.00 76 995.3
20220520041614 66 164 3.0 6.0 0.00 0.00 0.00 75 995.6
20220520040914 65 170 3.0 5.0 0.00 0.00 0.00 76 995.6
20220520040214 65 142 3.0 5.0 0.00 0.00 0.00 76 995.4
20220520035513 65 127 1.0 12.0 0.00 0.00 0.00 76 995.5
20220520034815 65 135 2.0 12.0 0.00 0.00 0.00 76 995.4
20220520034115 64 142 2.0 12.0 0.00 0.00 0.00 76 995.6
20220520033415 64 117 1.0 12.0 0.00 0.00 0.00 77 995.7
20220520032715 64 110 1.0 12.0 0.00 0.00 0.00 76 995.6
20220520032014 64 151 2.0 12.0 0.00 0.00 0.00 76 995.4
20220520031314 64 117 1.0 12.0 0.00 0.00 0.00 76 995.6
20220520030615 64 117 2.0 12.0 0.00 0.00 0.00 75 995.8
20220520025915 64 109 1.0 12.0 0.00 0.00 0.00 75 995.9
20220520025215 64 91 2.0 12.0 0.00 0.00 0.00 74 996.0
20220520024515 64 91 1.0 12.0 0.00 0.00 0.00 74 996.0
20220520023815 64 98 2.0 12.0 0.00 0.00 0.00 74 995.7
20220520023113 64 115 1.0 12.0 0.00 0.00 0.00 74 995.5
20220520022414 64 114 1.0 12.0 0.00 0.00 0.00 74 995.6
20220520021715 64 103 2.0 12.0 0.00 0.00 0.00 75 996.1
20220520021015 64 109 2.0 12.0 0.00 0.00 0.00 73 996.8
20220520020315 64 132 1.0 12.0 0.00 0.00 0.00 72 997.0
20220520015615 65 141 0.0 12.0 0.00 0.00 0.00 70 996.9
20220520014914 65 155 1.0 12.0 0.00 0.00 0.00 69 996.9
20220520014214 65 169 2.0 12.0 0.00 0.00 0.00 70 996.8
20220520013515 64 168 1.0 12.0 0.00 0.00 0.00 70 996.8
20220520012815 64 147 1.0 12.0 0.00 0.00 0.00 71 996.1
20220520012115 63 119 1.0 12.0 0.00 0.00 0.00 74 995.7
20220520011415 63 130 1.0 12.0 0.00 0.00 0.00 77 996.1
20220520010715 62 143 0.0 12.0 0.00 0.00 0.00 77 996.2
20220520010014 62 117 0.0 12.0 0.00 0.00 0.00 81 996.1
20220520005315 62 117 0.0 12.0 0.00 0.00 0.00 84 996.1
20220520004614 64 129 0.0 12.0 0.00 0.00 0.00 77 996.4
20220520003914 65 130 0.0 12.0 0.00 0.00 0.00 71 996.7
20220520003214 67 155 1.0 12.0 0.00 0.00 0.00 62 996.7
20220520002514 67 157 0.0 12.0 0.00 0.00 0.00 65 997.0
20220520001814 67 178 0.0 12.0 0.00 0.00 0.00 59 996.8
20220520001114 67 189 2.0 12.0 0.00 0.00 0.00 58 996.6
20220520000415 67 190 2.0 12.0 0.00 0.00 0.00 58 996.7
20220519235715 67 146 1.0 12.0 0.00 0.00 0.00 60 996.8
20220519235015 68 145 0.0 12.0 0.00 0.00 0.00 61 997.0
20220519234315 69 145 0.0 12.0 0.00 0.00 0.00 57 997.1
20220519233615 69 125 0.0 12.0 0.00 0.00 0.00 53 997.2
20220519232915 69 144 0.0 12.0 0.00 0.00 0.00 52 997.1
20220519232216 70 141 0.0 12.0 0.00 0.00 0.00 52 997.4
20220519231516 70 177 2.0 12.0 0.00 0.00 0.00 51 997.6
20220519230815 70 122 1.0 12.0 0.00 0.00 0.00 50 997.6
20220519230115 70 3 1.0 12.0 0.00 0.00 0.00 51 998.0
20220519225414 70 50 0.0 12.0 0.00 0.00 0.00 52 998.3
20220519224714 71 31 1.0 12.0 0.00 0.00 0.00 52 998.6
20220519224014 72 77 0.0 12.0 0.00 0.00 0.00 50 998.6
20220519223315 71 51 1.0 12.0 0.00 0.00 0.00 51 998.3
20220519222615 71 95 0.0 12.0 0.00 0.00 0.00 51 998.0
20220519221915 71 272 1.0 12.0 0.00 0.00 0.00 51 998.0
20220519221215 71 266 2.0 12.0 0.00 0.00 0.00 50 997.8
20220519220515 71 318 3.0 12.0 0.00 0.00 0.00 50 997.8
20220519215815 71 56 0.0 12.0 0.00 0.00 0.00 50 997.6
20220519215115 71 89 1.0 12.0 0.00 0.00 0.00 49 997.8
20220519214415 71 71 0.0 12.0 0.00 0.00 0.00 47 998.0
20220519213716 71 316 2.0 12.0 0.00 0.00 0.00 45 997.8
20220519213016 71 107 0.0 12.0 0.00 0.00 0.00 46 997.8
20220519212316 71 273 2.0 12.0 0.00 0.00 0.00 44 997.7
20220519211614 71 316 3.0 12.0 0.00 0.00 0.00 43 998.1
20220519210914 71 135 2.0 12.0 0.00 0.00 0.00 42 998.3
20220519210216 72 142 5.0 12.0 0.00 0.00 0.00 40 998.0
20220519205516 72 274 1.0 12.0 0.00 0.00 0.00 40 998.1
20220519204816 71 152 2.0 12.0 0.00 0.00 0.00 39 998.3
20220519204116 72 100 1.0 12.0 0.00 0.00 0.00 39 998.1
20220519203414 72 312 3.0 12.0 0.00 0.00 0.00 37 998.0
20220519202715 72 197 2.0 12.0 0.00 0.00 0.00 39 998.0
20220519202015 72 28 2.0 12.0 0.00 0.00 0.00 39 998.1
20220519201316 72 12 3.0 12.0 0.00 0.00 0.00 38 998.3
20220519200616 71 327 2.0 12.0 0.00 0.00 0.00 43 998.3
20220519195916 71 313 1.0 12.0 0.00 0.00 0.00 44 998.3
20220519195216 71 98 2.0 12.0 0.00 0.00 0.00 44 998.5
20220519194515 73 4 3.0 12.0 0.00 0.00 0.00 41 998.7
20220519193815 73 110 2.0 12.0 0.00 0.00 0.00 42 998.7
20220519193116 73 346 2.0 12.0 0.00 0.00 0.00 42 998.7
20220519192416 72 331 2.0 12.0 0.00 0.00 0.00 46 998.8
20220519191716 71 265 1.0 12.0 0.00 0.00 0.00 50 998.8
20220519191016 71 161 2.0 12.0 0.00 0.00 0.00 50 998.8
20220519190316 73 283 3.0 12.0 0.00 0.00 0.00 50 998.7
20220519185616 72 95 5.0 12.0 0.00 0.00 0.00 50 998.9
20220519184916 72 18 5.0 12.0 0.00 0.00 0.00 51 999.0
20220519184215 70 155 2.0 12.0 0.00 0.00 0.00 53 999.0
20220519183515 71 88 1.0 12.0 0.00 0.00 0.00 53 999.0
20220519182815 71 355 2.0 12.0 0.00 0.00 0.00 53 998.9
20220519182116 70 312 5.0 12.0 0.00 0.00 0.00 55 998.9
20220519181416 70 89 1.0 12.0 0.00 0.00 0.00 57 998.7
20220519180716 68 158 1.0 12.0 0.00 0.00 0.00 60 999.1
20220519180015 70 3 2.0 12.0 0.00 0.00 0.00 58 999.1
20220519175316 69 164 3.0 12.0 0.00 0.00 0.00 59 999.3
20220519174616 68 141 1.0 12.0 0.00 0.00 0.00 61 999.1
20220519173916 67 302 2.0 12.0 0.00 0.00 0.00 63 999.1
20220519173216 67 2 5.0 12.0 0.00 0.00 0.00 64 999.3
20220519172516 67 141 2.0 12.0 0.00 0.00 0.00 63 999.5
20220519171815 67 207 5.0 12.0 0.00 0.00 0.00 64 999.5
20220519171117 66 245 3.0 12.0 0.00 0.00 0.00 69 999.7
20220519170415 65 6 2.0 12.0 0.00 0.00 0.00 71 1000.0
20220519165715 65 13 1.0 12.0 0.00 0.00 0.00 71 1000.1
20220519165015 64 230 3.0 12.0 0.00 0.00 0.00 71 1000.1
20220519164315 63 209 3.0 12.0 0.00 0.00 0.00 72 1000.3
20220519163615 62 262 2.0 12.0 0.00 0.00 0.00 76 1000.4
20220519162915 61 182 1.0 12.0 0.00 0.00 0.00 77 1000.6
20220519162216 60 137 2.0 12.0 0.00 0.00 0.00 79 1000.7
20220519161516 60 169 2.0 12.0 0.00 0.00 0.00 79 1000.7
20220519160816 60 351 2.0 12.0 0.00 0.00 0.00 78 1000.8
20220519160116 59 166 6.0 12.0 0.00 0.00 0.00 78 1001.0
20220519155416 59 195 5.0 10.0 0.00 0.00 0.00 79 1000.8
20220519154716 60 86 2.0 10.0 0.00 0.00 0.00 78 1000.6
20220519154017 60 197 6.0 10.0 0.00 0.00 0.00 77 1000.6
20220519153317 59 93 1.0 10.0 0.00 0.00 0.00 77 1000.7
20220519152617 59 170 3.0 10.0 0.00 0.00 0.00 78 1000.7
20220519151915 59 133 1.0 10.0 0.00 0.00 0.00 78 1000.5
20220519151215 58 219 2.0 10.0 0.00 0.00 0.00 78 1000.5
20220519150515 58 316 3.0 10.0 0.00 0.00 0.00 78 1000.5
20220519145815 58 203 1.0 10.0 0.00 0.00 0.00 78 1000.5
20220519145116 58 273 2.0 10.0 0.00 0.00 0.00 78 1000.3
20220519144416 58 241 2.0 10.0 0.00 0.00 0.00 78 1000.4
20220519143716 59 123 0.0 10.0 0.00 0.00 0.00 78 1000.3
20220519143016 59 24 1.0 10.0 0.00 0.00 0.00 77 1000.1
20220519142315 58 291 1.0 10.0 0.00 0.00 0.00 77 1000.1
20220519141616 58 51 1.0 10.0 0.00 0.00 0.00 78 1000.4
20220519140916 58 202 2.0 10.0 0.00 0.00 0.00 78 1000.2
20220519140216 59 118 2.0 10.0 0.00 0.00 0.00 76 1000.3
20220519135517 59 3 1.0 10.0 0.00 0.00 0.00 75 1000.2
20220519134817 60 124 1.0 10.0 0.00 0.00 0.00 74 1000.4
20220519134115 60 59 1.0 10.0 0.00 0.00 0.00 73 1000.6
20220519133415 61 293 5.0 10.0 0.00 0.00 0.00 71 1000.4
20220519132715 59 110 1.0 10.0 0.00 0.00 0.00 73 1000.3
20220519132016 59 35 2.0 10.0 0.00 0.00 0.00 74 1000.3
20220519131316 59 26 2.0 10.0 0.00 0.00 0.00 74 1000.3
20220519130616 60 62 1.0 10.0 0.00 0.00 0.00 74 1000.3
20220519125916 59 124 1.0 10.0 0.00 0.00 0.00 74 1000.4
20220519125216 58 161 1.0 10.0 0.00 0.00 0.00 77 1000.9
20220519124516 57 297 2.0 10.0 0.00 0.00 0.00 78 1000.6
20220519123817 57 192 2.0 10.0 0.00 0.00 0.00 77 1000.5
20220519123117 56 168 2.0 10.0 0.00 0.00 0.00 79 1000.8
20220519122417 56 90 1.0 10.0 0.00 0.00 0.00 82 1000.7
20220519121717 56 94 1.0 10.0 0.00 0.00 0.00 81 1000.9
20220519121017 55 89 0.0 10.0 0.00 0.00 0.00 83 1001.0
20220519120315 53 72 1.0 10.0 0.00 0.00 0.00 87 1001.1
20220519115617 53 162 2.0 10.0 0.00 0.00 0.00 87 1001.1
20220519114917 52 193 2.0 10.0 0.00 0.00 0.00 88 1000.8
20220519114217 52 128 0.0 10.0 0.00 0.00 0.00 88 1001.0
20220519113517 53 121 0.0 10.0 0.00 0.00 0.00 87 1001.0
20220519112817 51 131 0.0 10.0 0.00 0.00 0.00 89 1000.9
20220519112117 51 116 1.0 10.0 0.00 0.00 0.00 90 1001.0
20220519111417 51 157 2.0 10.0 0.00 0.00 0.00 90 1001.1
20220519110716 51 94 1.0 10.0 0.00 0.00 0.00 90 1001.2
20220519110016 51 138 0.0 10.0 0.00 0.00 0.00 90 1001.0
20220519105316 51 51 3.0 10.0 0.00 0.00 0.00 90 1000.8
20220519104616 51 213 1.0 10.0 0.00 0.00 0.00 90 1000.7
20220519103916 51 172 3.0 10.0 0.00 0.00 0.00 90 1000.6
20220519103216 51 179 1.0 10.0 0.00 0.00 0.00 90 1000.4
20220519102517 51 165 2.0 10.0 0.00 0.00 0.00 90 1000.5
20220519101818 51 82 0.0 10.0 0.00 0.00 0.00 91 1000.5
20220519101116 51 345 2.0 10.0 0.00 0.00 0.00 91 1000.4
20220519100416 50 351 3.0 10.0 0.00 0.00 0.00 91 1000.4
20220519095716 50 88 2.0 10.0 0.00 0.00 0.00 91 1000.4
20220519095016 50 130 3.0 10.0 0.00 0.00 0.00 91 1000.2
20220519094317 50 212 2.0 10.0 0.00 0.00 0.00 91 1000.3
20220519093617 50 227 1.0 10.0 0.00 0.00 0.00 91 1000.3
20220519092917 50 102 0.0 10.0 0.00 0.00 0.00 91 1000.0
20220519092217 50 26 2.0 10.0 0.00 0.00 0.00 91 999.9
20220519091517 50 169 2.0 10.0 0.00 0.00 0.00 90 999.9
20220519090817 50 174 3.0 10.0 0.00 0.00 0.00 90 1000.0
20220519090117 50 217 1.0 10.0 0.00 0.00 0.00 90 999.8
20220519085418 51 266 1.0 10.0 0.00 0.00 0.00 90 1000.0
20220519084718 50 226 2.0 10.0 0.00 0.00 0.00 91 999.6
20220519084018 50 185 1.0 10.0 0.00 0.00 0.00 90 999.6
20220519083316 51 144 1.0 10.0 0.00 0.00 0.00 90 999.6
20220519082616 51 179 3.0 10.0 0.00 0.00 0.00 90 999.5